Hourly Data Report for September 13, 2018

SHEARWATER RCS
NOVA SCOTIA
Current Station Operator: ECCC - MSC

44°37'47.000" N
63°30'48.000" W
24.00 m
8205092
71264
AAW

Download Data

Hourly Data (September 2018)
Hourly Data Report for September 13, 2018
TIME Temp Definition
°C
Dew Point Definition
°C
Rel Hum Definition
%
Wind Dir Definition
10's deg

Wind Spd Definition
km/h
Visibility Definition
km
Stn Press Definition
kPa
Hmdx Definition


Wind Chill Definition


Weather Definition


00:00 15.4 12.4 83 36 5   102.20     LegendNANA
01:00 14.9 12.5 85 2 6   102.21     LegendNANA
02:00 14.0 12.3 90 0 1   102.21     LegendNANA
03:00 13.3 11.9 91 0 1   102.22     LegendNANA
04:00 13.4 12.2 92 33 3   102.21     LegendNANA
05:00 12.8 11.4 91 16 2   102.21     LegendNANA
06:00 12.9 11.9 94 34 3   102.22     LegendNANA
07:00 14.3 12.8 91 32 6   102.25     LegendNANA
08:00 15.9 13.5 86 35 9   102.26     LegendNANA
09:00 18.6 14.1 75 31 10   102.30     LegendNANA
10:00 19.9 14.0 69 30 8   102.26     LegendNANA
11:00 20.4 13.2 63 31 9   102.22     LegendNANA
12:00 22.1 12.7 55 23 8   102.17 25   LegendNANA
13:00 23.6 12.0 48 28 9   102.13 26   LegendNANA
14:00 22.0 14.9 64 15 14   102.08 26   LegendNANA
15:00 22.6 15.7 65 15 13   102.06 27   LegendNANA
16:00 23.3 15.9 63 16 11   102.06 28   LegendNANA
17:00 22.6 15.2 63 18 9   102.05 27   LegendNANA
18:00 21.4 15.3 68 22 4   102.05 26   LegendNANA
19:00 19.1 15.2 78 24 5   102.09     LegendNANA
20:00 17.7 15.1 85 32 4   102.14     LegendNANA
21:00 17.0 15.0 88 33 5   102.16     LegendNANA
22:00 17.1 14.5 85 32 2   102.15     LegendNANA
23:00 15.6 14.0 91 32 1   102.13     LegendNANA

Notes on Data Quality.

Legend

  • E = Estimated
  • M = Missing
  • NA = Not Available*
  • [empty] = Indicates an unobserved value
Date modified: